Wind_Speed
13 16 17 21 25 29 30 34 26 29 30 28 26 26 24 24 23 23 21 18 16 15 15 16 15 13 13 13 13 12 13 12 10 8 7 7 6 7 7 7 6 7 7
19 21 24 24 25 30 36 31 25 28 30 29 28 26 27 25 23 22 21 20 18 17 17 17 17 16 14 14 13 13 12 13 12 11 10 9 9 8 7 7 7 7 8
21 27 28 31 34 38 43 25 18 21 26 26 27 26 28 28 27 25 24 24 22 21 19 19 19 18 17 16 15 13 13 12 13 14 12 10 10 10 9 8 8 7 8
26 27 28 30 29 34 42 33 24 17 21 24 24 22 26 26 27 28 26 25 24 23 22 21 21 19 19 18 17 15 13 12 13 13 14 14 13 11 11 11 10 10 10
27 27 30 30 33 36 38 38 34 23 15 22 23 24 25 25 26 29 28 27 27 27 26 24 22 21 21 20 19 18 17 14 13 11 17 15 15 15 14 13 12 11 11
28 30 34 36 36 35 36 34 32 30 21 13 15 21 26 29 30 29 32 32 29 30 29 27 25 24 23 23 21 21 20 18 16 15 15 14 16 15 15 14 14 13 12
28 30 34 36 36 34 32 33 31 28 25 21 19 22 25 32 34 30 31 32 33 39 32 30 28 26 25 24 25 24 23 22 20 20 19 17 17 17 16 16 17 16 14
27 31 35 36 35 34 34 27 26 26 23 22 18 20 27 29 30 32 33 32 32 32 41 35 32 30 28 27 27 27 26 26 24 25 23 22 21 20 21 19 18 19 19
27 30 34 35 35 34 32 28 22 19 20 21 22 21 28 24 30 32 32 34 34 30 33 37 35 36 34 31 29 29 28 27 25 27 26 27 26 26 25 24 23 22 21
24 29 31 33 33 30 30 29 25 20 16 14 16 21 24 28 22 30 33 31 28 31 33 45 44 43 40 36 34 34 32 29 28 29 29 30 30 31 31 28 27 27 26
26 28 30 33 31 32 30 30 30 29 23 21 16 16 20 18 20 24 25 29 27 32 32 31 34 41 43 42 41 40 37 34 31 31 31 31 31 32 33 35 33 31 30
22 25 26 25 26 27 29 29 28 30 27 23 16 17 19 18 17 17 20 26 24 30 24 30 32 38 42 46 47 46 43 39 36 34 33 31 32 33 33 35 37 36 34
18 19 22 21 23 26 26 26 26 25 28 28 22 18 16 19 18 17 19 21 23 25 28 32 34 34 36 47 49 46 40 40 41 37 35 32 31 31 33 33 35 38 38
16 16 18 20 21 23 26 24 25 27 28 28 24 25 22 21 22 23 22 22 26 24 26 29 29 34 40 41 43 35 36 36 36 35 36 37 36 34 32 33 32 34 37
17 20 20 22 21 24 26 27 25 29 27 25 26 25 24 24 24 25 28 27 25 26 26 29 32 28 26 29 34 31 30 35 38 38 36 38 37 36 34 32 32 32 35
23 24 24 22 25 26 27 31 30 32 34 34 33 31 30 29 29 28 30 32 30 30 30 29 29 36 32 27 27 28 28 30 30 30 31 31 32 31 31 31 34 37 36
23 25 26 27 29 25 28 32 33 34 34 38 40 40 38 35 35 37 34 31 33 35 35 33 31 31 31 32 31 30 28 29 29 28 31 32 29 29 26 29 33 35 38
26 24 29 29 29 29 32 30 29 32 38 42 44 45 44 41 39 39 39 39 35 34 36 36 34 33 32 35 37 36 34 30 26 27 25 27 28 28 28 29 27 32 34
27 27 26 28 30 33 35 37 39 40 42 44 46 46 46 42 40 41 41 39 38 36 37 38 38 37 35 35 38 37 38 34 33 30 29 28 30 31 29 28 26 23 24
29 30 32 32 33 35 38 41 43 43 44 46 47 47 47 45 42 42 43 39 38 37 38 39 37 38 38 38 37 37 39 37 36 33 31 26 25 25 27 28 26 26 24
29 32 34 37 39 40 43 43 44 45 45 47 46 47 47 46 42 43 41 41 37 38 36 39 40 40 39 37 38 36 36 36 36 34 33 33 35 33 28 27 27 24 23
33 37 37 37 38 40 42 43 43 45 48 50 50 50 48 44 42 42 40 37 37 37 36 38 38 38 37 37 35 35 33 34 33 32 34 33 32 29 28 28 28 26 25
38 39 39 39 38 38 39 41 44 47 50 52 52 51 47 43 43 42 39 36 35 36 34 35 36 37 35 37 35 34 34 34 33 33 34 33 33 33 33 31 31 30 27
40 42 41 42 42 42 43 43 45 48 50 52 52 50 46 42 43 40 37 36 35 34 36 35 35 28 29 28 31 33 34 34 35 35 35 35 35 34 34 34 34 34 32
40 44 45 46 47 48 47 48 49 51 51 52 51 50 48 43 42 40 38 36 35 34 36 34 34 30 32 30 31 33 32 34 36 36 35 36 37 37 37 36 36 34 32
44 46 49 49 49 52 52 51 52 53 52 52 51 50 47 43 42 40 38 37 35 35 33 36 35 37 31 30 33 34 33 34 36 36 37 37 38 39 38 37 37 37 36
Wind_Direction
15 7 359 351 347 341 330 322 291 275 262 252 244 238 238 241 250 253 248 244 245 245 240 238 237 240 242 246 252 247 243 240 240 244 238 234 237 238 234 229 223 231 236
29 23 20 9 1 353 339 319 290 274 260 255 248 243 237 243 245 245 246 248 246 248 245 242 241 243 244 249 252 253 247 240 238 242 243 238 238 236 235 229 228 223 237
21 17 19 17 15 8 358 335 305 281 267 254 254 249 244 242 245 248 248 249 249 250 250 248 247 246 247 248 252 257 255 248 241 237 242 243 242 240 236 233 226 225 239
14 12 9 6 8 8 10 1 344 294 261 253 253 253 253 245 246 249 249 247 247 250 250 250 250 250 249 250 252 254 258 257 253 251 245 242 241 241 243 239 237 237 251
9 5 3 3 4 7 6 11 11 356 303 264 244 254 255 254 250 249 246 245 248 249 251 251 253 252 251 248 249 253 254 258 260 259 252 245 245 245 241 244 237 243 251
359 358 360 1 4 10 15 16 16 18 354 302 273 267 258 259 251 248 253 244 247 249 249 248 252 254 252 250 249 250 251 253 257 255 259 256 249 247 244 242 239 242 239
355 358 358 1 3 6 17 20 18 17 14 5 327 308 284 264 258 254 253 254 257 238 239 244 247 249 250 251 252 250 252 252 252 254 256 256 255 255 249 243 241 241 239
354 355 358 359 3 5 6 14 21 16 10 8 351 332 331 280 263 258 254 250 257 265 244 232 241 247 250 251 252 251 250 251 252 256 255 256 256 257 257 252 248 244 240
357 357 356 358 359 1 4 6 13 16 10 360 354 347 355 320 273 265 264 262 251 255 260 238 235 242 245 251 248 249 250 253 254 257 258 257 256 255 255 255 253 249 247
356 351 350 348 345 354 357 358 1 4 6 6 359 355 348 353 309 276 277 276 268 250 262 267 247 241 244 246 248 249 251 255 259 258 260 258 258 257 256 252 254 255 251
341 340 341 345 346 346 353 354 357 354 351 352 349 345 349 347 342 338 313 317 285 264 264 257 265 254 254 247 243 248 251 255 258 260 261 263 262 259 256 255 252 252 251
332 345 345 351 351 349 350 350 348 347 342 340 338 337 331 338 332 324 315 312 304 280 261 267 274 270 260 257 248 246 249 252 258 263 265 262 260 259 258 255 253 251 251
346 336 342 343 340 337 339 334 334 333 334 340 334 330 323 316 313 313 305 304 299 300 304 284 273 269 269 258 249 245 251 257 262 264 266 266 267 265 258 257 254 253 251
345 331 332 327 325 327 328 327 327 329 331 337 334 319 317 315 309 304 296 288 288 285 294 292 274 279 269 256 252 246 244 256 263 266 270 270 268 265 266 261 259 255 253
334 331 329 325 324 318 316 314 323 321 323 330 326 322 308 296 293 292 290 286 280 278 278 276 284 257 242 246 240 247 254 261 264 264 267 267 265 259 259 260 259 257 254
344 341 335 330 326 317 317 314 313 316 313 313 312 310 304 299 287 282 284 285 280 274 271 270 271 278 280 274 259 254 261 265 270 256 260 267 264 258 257 259 259 257 253
339 341 336 324 320 314 311 308 309 308 306 307 308 309 307 296 287 287 278 272 271 270 269 267 266 265 266 269 265 261 259 265 277 264 258 260 260 258 261 260 267 255 249
327 330 319 323 307 309 310 308 304 298 300 305 306 309 309 300 292 285 285 282 273 268 268 268 265 265 264 261 262 262 258 261 263 261 257 251 253 255 255 259 272 261 252
323 322 318 322 315 308 304 305 301 302 301 304 308 310 308 303 293 286 283 282 280 275 269 265 266 264 259 259 259 260 258 255 256 256 257 253 251 254 258 260 262 265 264
314 310 318 318 316 308 306 304 305 304 303 303 307 307 307 302 293 285 284 281 278 274 273 263 263 266 262 259 259 256 257 257 253 253 249 250 249 253 258 259 261 265 267
309 315 315 313 314 313 312 311 308 305 303 303 303 305 305 302 293 287 284 281 275 274 270 261 260 259 263 263 260 257 255 254 254 251 242 244 249 254 257 260 259 258 259
300 312 314 315 312 313 310 305 303 300 301 302 304 305 305 300 293 287 283 277 272 270 269 264 261 261 258 260 259 259 253 252 248 247 244 241 246 255 251 253 256 256 257
298 312 319 318 311 311 308 303 297 297 300 303 304 304 303 298 291 288 281 272 265 266 264 264 267 265 259 257 256 255 253 248 246 242 243 243 245 245 245 249 252 253 255
301 307 315 317 316 315 310 305 299 297 298 298 301 302 300 295 290 284 276 269 262 264 264 264 262 259 255 256 253 251 249 246 243 241 240 242 244 246 248 250 250 251 249
302 304 308 310 312 312 308 307 301 296 296 296 298 299 297 294 287 280 273 266 261 260 260 263 257 260 257 253 253 251 245 245 244 245 244 243 246 248 249 252 253 253 254
304 307 311 311 309 311 308 302 299 296 295 295 296 295 293 291 287 277 271 266 259 256 258 265 257 254 257 257 256 253 248 246 247 245 247 249 252 252 252 252 253 253 255
Height
5859 5857 5855 5854 5852 5850 5847 5844 5843 5844 5844 5845 5845 5846 5847 5848 5848 5849 5850 5851 5851 5851 5852 5851 5852 5852 5853 5853 5852 5852 5852 5852 5853 5853 5853 5853 5853 5853 5853 5853 5853 5854 5854
5857 5856 5855 5854 5852 5848 5844 5836 5834 5835 5837 5839 5841 5844 5844 5845 5846 5847 5848 5848 5849 5849 5850 5850 5850 5850 5850 5851 5851 5850 5851 5850 5850 5851 5851 5851 5852 5851 5852 5852 5852 5852 5853
5856 5855 5854 5853 5850 5847 5840 5831 5829 5829 5831 5833 5837 5840 5841 5842 5843 5845 5846 5846 5847 5847 5848 5848 5848 5848 5848 5849 5849 5849 5850 5849 5848 5848 5849 5849 5849 5850 5850 5851 5850 5851 5851
5854 5854 5853 5851 5848 5844 5837 5832 5828 5824 5825 5828 5831 5835 5839 5840 5841 5841 5842 5843 5844 5844 5845 5846 5846 5846 5846 5846 5846 5847 5848 5848 5847 5848 5847 5847 5847 5848 5848 5849 5849 5849 5850
5853 5852 5850 5848 5846 5841 5837 5830 5827 5823 5823 5824 5825 5830 5834 5836 5837 5838 5838 5839 5840 5841 5841 5842 5843 5843 5844 5844 5843 5844 5846 5845 5845 5846 5843 5845 5844 5845 5846 5846 5847 5847 5847
5852 5850 5847 5844 5841 5839 5835 5831 5826 5823 5823 5823 5825 5827 5828 5829 5831 5831 5833 5834 5835 5836 5837 5838 5839 5839 5840 5841 5840 5841 5842 5843 5843 5842 5842 5844 5843 5842 5843 5844 5844 5844 5844
5850 5848 5845 5843 5839 5835 5833 5830 5827 5825 5824 5824 5826 5827 5826 5825 5825 5825 5827 5828 5829 5828 5831 5833 5833 5835 5835 5836 5837 5837 5838 5839 5840 5839 5839 5840 5841 5841 5841 5841 5842 5842 5842
5850 5848 5845 5841 5838 5835 5831 5829 5827 5825 5824 5824 5824 5824 5823 5821 5819 5820 5820 5822 5824 5824 5823 5825 5828 5830 5830 5831 5832 5833 5833 5834 5836 5834 5836 5837 5837 5838 5839 5839 5839 5839 5839
5849 5847 5843 5840 5836 5832 5829 5825 5824 5823 5822 5821 5820 5819 5816 5814 5814 5815 5814 5816 5816 5817 5819 5819 5821 5823 5825 5826 5826 5827 5828 5829 5831 5830 5831 5832 5833 5834 5834 5835 5835 5836 5836
5847 5844 5841 5837 5834 5830 5826 5824 5822 5821 5820 5818 5816 5815 5813 5810 5811 5811 5809 5809 5811 5810 5814 5812 5813 5817 5818 5820 5821 5821 5822 5823 5824 5825 5824 5825 5827 5828 5829 5830 5831 5831 5831
5844 5841 5837 5835 5832 5829 5826 5823 5820 5818 5816 5815 5813 5810 5809 5807 5806 5807 5806 5805 5806 5806 5808 5808 5809 5809 5811 5812 5813 5814 5815 5816 5817 5818 5818 5819 5820 5821 5822 5824 5825 5826 5827
5840 5838 5835 5832 5829 5826 5823 5820 5816 5814 5810 5807 5807 5806 5804 5803 5804 5804 5803 5802 5802 5801 5804 5805 5804 5804 5805 5805 5805 5806 5808 5809 5810 5811 5811 5812 5813 5814 5815 5816 5817 5819 5820
5836 5834 5831 5829 5827 5824 5821 5818 5814 5810 5808 5806 5803 5802 5801 5800 5799 5799 5799 5799 5797 5798 5798 5797 5798 5798 5799 5798 5798 5799 5800 5802 5803 5803 5804 5805 5805 5806 5807 5808 5809 5811 5813
5834 5832 5829 5826 5825 5822 5818 5815 5813 5810 5806 5803 5801 5797 5796 5794 5794 5794 5794 5793 5793 5792 5792 5790 5790 5790 5791 5792 5792 5793 5791 5793 5795 5796 5797 5798 5800 5800 5800 5800 5802 5803 5804
5831 5828 5826 5823 5821 5818 5816 5813 5811 5808 5804 5800 5797 5794 5791 5789 5789 5789 5788 5788 5786 5785 5785 5785 5785 5784 5785 5784 5784 5784 5784 5786 5788 5788 5789 5789 5791 5792 5793 5793 5795 5795 5795
5830 5828 5825 5822 5819 5816 5813 5810 5807 5805 5800 5797 5793 5790 5788 5787 5784 5782 5782 5780 5780 5778 5777 5778 5777 5776 5777 5777 5776 5776 5776 5779 5779 5780 5781 5781 5782 5784 5785 5786 5787 5787 5788
5827 5825 5822 5819 5815 5811 5807 5804 5801 5798 5795 5791 5787 5785 5782 5779 5778 5777 5773 5771 5771 5771 5771 5770 5769 5769 5769 5771 5772 5770 5771 5772 5772 5771 5774 5774 5775 5777 5777 5778 5778 5778 5779
5823 5820 5816 5812 5809 5805 5801 5797 5793 5790 5787 5785 5781 5778 5776 5773 5771 5768 5767 5767 5763 5761 5761 5762 5761 5761 5761 5762 5762 5764 5763 5764 5765 5766 5767 5767 5769 5770 5770 5771 5771 5770 5770
5817 5814 5811 5807 5803 5799 5796 5792 5787 5783 5779 5777 5773 5770 5766 5764 5762 5760 5757 5756 5756 5755 5752 5750 5752 5753 5752 5754 5755 5756 5756 5756 5758 5759 5759 5760 5761 5762 5762 5763 5764 5764 5764
5810 5807 5805 5801 5796 5791 5786 5782 5779 5777 5773 5768 5765 5761 5758 5754 5752 5749 5747 5745 5745 5745 5744 5743 5741 5743 5744 5744 5746 5747 5748 5748 5749 5751 5751 5753 5754 5755 5754 5756 5755 5756 5756
5805 5801 5797 5794 5788 5783 5779 5775 5772 5768 5765 5760 5756 5751 5747 5744 5742 5738 5736 5735 5734 5734 5733 5732 5732 5732 5733 5734 5736 5737 5738 5739 5741 5742 5744 5745 5747 5748 5749 5749 5749 5750 5750
5798 5793 5789 5785 5780 5776 5772 5767 5764 5759 5755 5749 5745 5741 5737 5734 5731 5728 5726 5725 5724 5722 5722 5722 5721 5722 5723 5724 5725 5727 5728 5730 5731 5734 5736 5738 5739 5740 5741 5742 5743 5743 5744
5789 5786 5781 5776 5772 5768 5763 5759 5754 5748 5743 5739 5734 5730 5727 5724 5721 5718 5716 5715 5713 5713 5712 5712 5712 5712 5713 5714 5715 5718 5720 5721 5722 5724 5728 5730 5731 5733 5734 5734 5735 5736 5738
5779 5776 5773 5767 5762 5758 5752 5748 5744 5739 5733 5727 5723 5719 5716 5713 5710 5708 5706 5705 5704 5703 5703 5703 5703 5703 5703 5705 5706 5708 5711 5713 5714 5716 5718 5721 5722 5724 5725 5727 5727 5729 5730
5767 5764 5760 5756 5751 5746 5740 5737 5733 5727 5722 5716 5712 5708 5705 5702 5700 5697 5696 5694 5693 5694 5694 5694 5694 5693 5694 5696 5698 5700 5701 5704 5706 5708 5709 5711 5713 5714 5716 5718 5719 5721 5722
5755 5752 5748 5743 5738 5733 5728 5724 5719 5715 5709 5704 5700 5696 5694 5691 5689 5687 5685 5684 5683 5683 5684 5684 5685 5684 5684 5686 5689 5691 5692 5695 5698 5699 5702 5703 5704 5705 5706 5708 5710 5711 5713